Miscellaneous Local Product
Issued by NWS Hastings, NE

Home | Current Version | Previous Version | Graphics & Text | Print | Product List | Glossary On
Versions: 1 2 3 4 5 6 7 8 9 10 11 12 13 14 15 16 17 18 19 20 21 22 23 24 25 26 27 28 29 30 31 32 33 34 35 36 37 38 39 40 41 42 43 44 45 46 47 48 49 50
000
AXUS43 KGID 251002
MISGRI

GID CWA HOURLY WEATHER ROUNDUP
NATIONAL WEATHER SERVICE HASTINGS NE
500 AM CDT WED APR 25 2018

NOTE: "FAIR" INDICATES FEW OR NO CLOUDS BELOW 12,000 FEET WITH NO
SIGNIFICANT WEATHER AND/OR OBSTRUCTIONS TO VISIBILITY.

...SOUTH CENTRAL NEBRASKA...

CITY           SKY/WX    TMP DP  RH WIND       PRES   REMARKS
GRAND ISLAND   CLOUDY    42  38  85 N17       30.30R
KEARNEY        LGT RAIN  40  37  89 N13       30.32R WCI  32
HASTINGS       LGT RAIN  40  40 100 N15       30.29R WCI  32
ORD            LGT RAIN  40  38  93 NW7       30.30S
YORK           LGT RAIN  41  41 100 N17G24    30.26S
AURORA         DRIZZLE   41  40  95 N16       30.28S
LEXINGTON      CLOUDY    40  35  85 NW12      30.33F WCI  32
HOLDREGE       CLOUDY    38  38  97 N13G18    30.31S FOG     WCI  31
HEBRON         RAIN      44  42  94 N12G20    30.25S

...NEBRASKA PANHANDLE...

CITY           SKY/WX    TMP DP  RH WIND       PRES   REMARKS
CHADRON        CLEAR     23  21  92 SW7       30.36F WCI  15
ALLIANCE       CLEAR     23  23 100 W8        30.35F WCI  14
SCOTTSBLUFF    CLEAR     28  26  92 CALM      30.37F
SIDNEY         CLEAR     27  25  92 W7        30.37F WCI  19

...WESTERN AND NORTH CENTRAL NEBRASKA...

CITY           SKY/WX    TMP DP  RH WIND       PRES   REMARKS
VALENTINE      PTCLDY    34  30  85 NW9       30.34F WCI  27
AINSWORTH      PTCLDY    35  33  93 NW5       30.33S WCI  31
ONEILL         MOCLDY    38  37  94 NW8       30.32S WCI  33
BROKEN BOW     CLOUDY    40  34  79 NW12      30.31S WCI  33
IMPERIAL       CLOUDY    36  31  82 NW10      30.36S WCI  28
NORTH PLATTE   CLOUDY    38  34  85 NW6       30.35S WCI  33
MCCOOK         CLOUDY    38  35  89 NW9       30.35S WCI  31

...EASTERN NEBRASKA...

CITY           SKY/WX    TMP DP  RH WIND       PRES   REMARKS
NORFOLK        LGT RAIN  40  37  89 NW10      30.27F WCI  33
SO SIOUX CITY  CLOUDY    42  34  73 N13       30.25S
TEKAMAH        LGT RAIN  43  39  86 N15       30.24R
COLUMBUS       CLOUDY    42  37  82 N15       30.28S
ALBION         CLOUDY    41  37  86 N7        30.30S
OMAHA EPPLEY   CLOUDY    46  43  89 NW10      30.22R
OFFUTT AFB     CLOUDY    47  43  86 N7        30.20R
MILLARD        CLOUDY    47  43  84 N7        30.22S
LINCOLN        LGT RAIN  44  42  93 N16G25    30.25S FOG
NEBRASKA CITY  DRIZZLE   47  46  96 N12       30.19S
BEATRICE       LGT RAIN  46  45  96 N15       30.22S
FALLS CITY     LGT RAIN  49  44  83 N9        30.17S

...NORTHERN KANSAS...

CITY           SKY/WX    TMP DP  RH WIND       PRES   REMARKS
GOODLAND       CLEAR     31  29  92 N13       30.34F WCI  21
HILL CITY      CLOUDY    40  37  89 N17G28    30.32S WCI  31
NORTON         DRIZZLE   39  36  87 NW13      30.32S WCI  32
PHILLIPSBURG   CLOUDY    41  39  93 NW12      30.31F
SMITH CENTER   CLOUDY    39  37  93 NW14      30.29S WCI  31
BELOIT         CLOUDY    41  39  93 N13       30.26R
HAYS           CLOUDY    40  37  89 NW18      30.29S WCI  31
RUSSELL        CLOUDY    41  41 100 NW20      30.26R
CONCORDIA      LGT RAIN  44  42  93 N13       30.23R
SALINA         CLOUDY    47  46  97 NW18      30.22R FOG
TOPEKA         LGT RAIN  52  50  93 NW7       30.17R



USA.gov is the U.S. government's official web portal to all federal, state and local government web resources and services.